Regional Weather Roundup
Issued by NWS

Home | Current Version | Previous Version | Graphics & Text | Print | Product List | Glossary On
Versions: 1 2 3 4 5 6 7 8 9 10 11 12 13 14 15 16 17 18 19 20 21 22 23 24 25 26 27 28 29 30 31 32 33 34 35 36 37 38 39 40 41 42 43 44 45 46 47 48 49 50
438
ASUS43 KOAX 301702
RWRNE

WEATHER ROUNDUP FOR NEBRASKA
NATIONAL WEATHER SERVICE OMAHA NE
1200 PM CDT SUN APR 30 2017

NOTES: SATELLITE DATA IS BEING USED TO AUGMENT CLOUD COVER ABOVE
       12000 FEET.
       "FAIR" INDICATES FEW OR NO CLOUDS BELOW 12,000 FEET WITH NO
       SIGNIFICANT WEATHER AND/OR OBSTRUCTIONS TO VISIBILITY.

  * THESE STATIONS DO NOT REPORT WEATHER SUCH AS RAIN...SNOW OR FOG.

NEZ001>004-019>022-054>056-301800-
NEBRASKA PANHANDLE

CITY           SKY/WX    TMP DP  RH WIND       PRES   REMARKS
SCOTTSBLUFF    CLOUDY    50  21  32 N22G29    29.98F
ALLIANCE       CLOUDY    46  20  35 N28G33    29.92F
CHADRON        MOSUNNY   50  23  34 N13G24    29.99F
KIMBALL        CLOUDY    45  21  38 N22G33    29.95F
SIDNEY         CLOUDY    46  24  42 N31G40    29.92F
$$

NEZ057>060-069>072-079>082-301800-
SOUTHWEST NEBRASKA

CITY           SKY/WX    TMP DP  RH WIND       PRES   REMARKS
NORTH PLATTE   CLOUDY    43  21  41 N22G37    29.83R
IMPERIAL       CLOUDY    42  22  44 N24G38    29.84R
LEXINGTON      SNOW      33  32  94 N16       29.74S VSB 1/2 WCI  23
MCCOOK         FOG       33  33 100 N24G33    29.78R VSB 1/4 WCI  20
OGALLALA       CLOUDY    46  22  38 N26G39    29.86R
$$

NEZ005>010-023>029-035>040-094-301800-
NORTH CENTRAL NEBRASKA

CITY           SKY/WX    TMP DP  RH WIND       PRES   REMARKS
VALENTINE      PTSUNNY   47  17  30 N21G30    29.90F
AINSWORTH      CLOUDY    42  22  43 N23G32    29.87F
BROKEN BOW     FLURRIES  37  31  78 N30G48    29.72R WCI  24
O`NEILL        LGT RAIN  37  33  87 N21G26    29.84F WCI  26
ORD            FLURRIES  35  32  88 N24G39    29.72F WCI  23
THEDFORD       CLOUDY    43  20  39 N31G40    29.82F
$$

NEZ041-046>049-061>064-073>077-083>087-301800-
SOUTH CENTRAL NEBRASKA

CITY           SKY/WX    TMP DP  RH WIND       PRES   REMARKS
GRAND ISLAND   RAIN      36  36 100 NE23G32   29.68R FOG     WCI  24
AURORA         RAIN      37  37 100 NE26G36   29.65R WCI  26
HASTINGS       RAIN      36  35  96 N16       29.67S FOG     WCI  26
HEBRON         RAIN      38  38  98 N16G22    29.59F WCI  30
HOLDREGE       LGT SNOW  33  32  96 N18       29.69S VSB 1   WCI  22
KEARNEY *      CLOUDY    34  30  86 N17G25    29.70S WCI  23
YORK           MIX PCPN  37  37 100 NE26G36   29.63R WCI  26
$$

NEZ011>018-030>034-042>045-301800-
NORTHEAST NEBRASKA

CITY           SKY/WX    TMP DP  RH WIND       PRES   REMARKS
NORFOLK        CLOUDY    38  35  89 NE24G37   29.71F WCI  27
ALBION         LGT RAIN  37  34  89 N26G33    29.71F WCI  25
BLAIR          CLOUDY    40  38  95 NE29G36   29.58F WCI  28
FREMONT        CLOUDY    39  38  97 NE21G30   29.63F WCI  29
TEKAMAH        CLOUDY    40  36  86 NE31G37   29.70F WCI  28
WAYNE          LGT RAIN  39  39  99 NE26      29.76F WCI  28
$$

NEZ050>053-065>068-078-088>093-301800-
SOUTHEAST NEBRASKA

CITY           SKY/WX    TMP DP  RH WIND       PRES   REMARKS
LINCOLN        RAIN      40  38  93 NE26G38   29.56S FOG     WCI  29
OMAHA EPPLEY   LGT RAIN  42  37  82 NE24G39   29.60F
BEATRICE       LGT RAIN  42  41  97 NE7       29.58S
FALLS CITY     LGT RAIN  46  45  96 S15G22    29.54R FOG
NEBRASKA CITY  LGT RAIN  43  43 100 NE22G32   29.51F
$$

NEZ044-045-051>053-067-301800-
OMAHA AREA

CITY           SKY/WX    TMP DP  RH WIND       PRES   REMARKS
OMAHA EPPLEY   LGT RAIN  42  37  82 NE24G39   29.60F
BLAIR          CLOUDY    40  38  95 NE29G36   29.58F WCI  28
FREMONT        CLOUDY    39  38  97 NE21G30   29.63F WCI  29
MILLARD        RAIN      43  39  88 NE17G30   29.58F
OFFUTT AFB     LGT RAIN  42  39  89 NE21G30   29.57F
WAHOO          CLOUDY    39  37  93 NE33G43   29.56F WCI  27
$$




USA.gov is the U.S. government's official web portal to all federal, state and local government web resources and services.